Regional Weather Roundup
Issued by NWS Green Bay, WI

Home | Current Version | Previous Version | Graphics & Text | Print | Product List | Glossary Off
Versions: 1 2 3 4 5 6 7 8 9 10 11 12 13 14 15 16 17 18 19 20 21 22 23 24 25 26 27 28 29 30 31 32 33 34 35 36 37 38 39 40 41 42 43 44 45 46 47 48 49 50

000
ASUS43 KGRB 210759
RWRGRB

NORTH-CENTRAL AND NORTHEAST WISCONSIN REGIONAL WEATHER ROUNDUP
NATIONAL WEATHER SERVICE GREEN BAY WI
300 AM CDT THU AUG 21 2014

WIZ005-009-010>012-018-019-210900-
NORTH CENTRAL WISCONSIN

CITY           SKY/WX    TMP DP  RH WIND       PRES   REMARKS
IRONWOOD       PTCLDY    54  54 100 E3        29.92F
MANITOWISH WTR NOT AVBL
ARBOR VITAE    NOT AVBL
EAGLE RIVER    NOT AVBL
LAND O LAKES   NOT AVBL
RHINELANDER    CLOUDY    60  60 100 SE7       29.97F
PHILLIPS       CLEAR     56  55  99 E3        29.94F
ANTIGO         NOT AVBL
TOMAHAWK       NOT AVBL
MERRILL        NOT AVBL
$$

WIZ013-073-210900-
NORTHEAST WISCONSIN

CITY           SKY/WX    TMP DP  RH WIND       PRES   REMARKS
IRON MOUNTAIN  CLOUDY    64  61  90 CALM      29.97S
MARINETTE      CLOUDY    64  63  94 CALM      29.96S
$$

WIZ017-030-035>037-045-210900-
CENTRAL WISCONSIN

CITY           SKY/WX    TMP DP  RH WIND       PRES   REMARKS
MEDFORD        NOT AVBL
WAUSAU         MOCLDY    60  59  96 SE5       29.94F
MOSINEE        NOT AVBL
MARSHFIELD     MOCLDY    63  60  90 E6        29.93F
WISC RAPIDS    MOCLDY    64  62  93 E3        29.94F
STEVENS POINT  NOT AVBL
WAUPACA        NOT AVBL
SHAWANO        FOG       61  59  94 CALM      29.96F VSB 1/4
CLINTONVILLE   NOT AVBL
$$

WIZ038-039-048-051-210900-
FOX VALLEY

CITY           SKY/WX    TMP DP  RH WIND       PRES   REMARKS
NWS GREEN BAY  MOCLDY    60  60 100 CALM      29.96F FOG
APPLETON       NOT AVBL
OSHKOSH        MOCLDY    63  61  93 S5        29.94F
FOND DU LAC    MOCLDY    65  61  87 SE8       29.95F
$$

WIZ022-050-052-210900-
EAST CENTRAL WISCONSIN

CITY           SKY/WX    TMP DP  RH WIND       PRES   REMARKS
STURGEON BAY   CLOUDY    63  61  94 S6        29.98S
MANITOWOC      NOT AVBL
SHEBOYGAN      MOCLDY    62  60  93 NE3       29.96F FOG
$$

LMZ563-521-522-541>543-210900-
LAKESHORE

STATION/POSITION TIME  TEMP    WIND        PRES    VSBY  WAVE
                       AIR SEA DIR/SP/G                  HT/PER
                 (UTC) (F)     (DEG/KT/KT) (MB)    (MI)  (FT/S)
SHEBOYGAN LKSHOR 0700   66 67  150/  1/  1 1014.8F
KEWAUNEE LKSHORE 0700   62        CALM     1014.0R
ALGOMA MARINA    0700             CALM       N/A
NORTHPORT PIER   0700   64     210/  2/  6 1014.6S
N MID LAKE BUOY  0700   63 62  220/  4/  6 1014.3R         0
S GREEN BAY BUOY 0700   67     VRB  8      1015.6R
SISTER BAY LKSHO 0700   64     150/  1/  5   N/A
CHAMBERS ISLAND  0700   65      CALM  /  4 1014.9R
MENOMINEE LKSHOR 0700   67     160/  3/  6 1015.1R
$$



USA.gov is the U.S. government's official web portal to all federal, state and local government web resources and services.